Location: Kuppenheim
(48.8299°N, 8.2568°E)
Time: 02:05:53
(UTC+00:00)

Envisat - Pass Details

Date: 30 November 2022
Orbit: 763 x 765 km, 98.2° (Epoch: 08 February)

Event Time Altitude Azimuth Distance (km) Brightness Sun altitude
Rises 04:29:56 0° 9° (N) 3,247 6.3 -23.5°
Reaches altitude 10° 04:32:20 10° 3° (N) 2,316 5.4 -23.1°
Enters shadow 04:35:32 34° 337° (NNW) 1,259 3.8 -22.6°
